DW8366 Weather Reports


Display with metric or nautical units.
time (UTC)temp
F
wind
direction
speed
MPH
gust
MPH
rain 1hr
in
rain 24hr
in
rain mn
in
humidity
%
barometer
mb
20181120211503 42 268 0.0 2.0 0.00 0.00 0.00 76 1013.2
20181120210003 41 248 1.0 2.0 0.00 0.00 0.00 76 1013.2
20181120205504 41 247 0.0 2.0 0.00 0.00 0.00 76 1013.2
20181120200004 41 225 0.0 1.0 0.00 0.00 0.00 74 1013.2
20181120195503 41 225 0.0 1.0 0.00 0.00 0.00 73 1013.2
20181120193004 42 268 1.0 2.0 0.00 0.00 0.00 73 1013.2
20181120192003 42 274 0.0 2.0 0.00 0.00 0.00 73 1013.2
20181120191004 42 256 0.0 2.0 0.00 0.00 0.00 72 1013.2
20181120190503 42 269 0.0 2.0 0.00 0.00 0.00 72 1013.2
20181120184503 42 228 0.0 2.0 0.00 0.00 0.00 71 1013.2
20181120183502 42 247 0.0 2.0 0.00 0.00 0.00 71 1013.2
20181120183003 42 253 0.0 1.0 0.00 0.00 0.00 71 1013.2
20181120182502 43 269 0.0 2.0 0.00 0.00 0.00 71 1013.2
20181120181503 43 261 0.0 2.0 0.00 0.00 0.00 69 1013.2
20181120180503 43 265 0.0 2.0 0.00 0.00 0.00 69 1013.2
20181120180004 44 270 0.0 2.0 0.00 0.00 0.00 69 1013.2
20181120175503 44 261 0.0 1.0 0.00 0.00 0.00 69 1013.2
20181120175003 44 242 0.0 1.0 0.00 0.00 0.00 69 1013.2
20181120174504 43 252 0.0 2.0 0.00 0.00 0.00 70 1013.2
20181120173504 43 265 1.0 2.0 0.00 0.00 0.00 70 1013.2
20181120173004 43 263 0.0 2.0 0.00 0.00 0.00 70 1013.2
20181120172504 43 276 0.0 2.0 0.00 0.00 0.00 70 1013.2
20181120172003 43 277 0.0 2.0 0.00 0.00 0.00 70 1013.2
20181120170503 43 240 1.0 2.0 0.00 0.00 0.00 69 1013.2
20181120170004 43 259 1.0 2.0 0.00 0.00 0.00 69 1013.2
20181120165504 44 249 0.0 2.0 0.00 0.00 0.00 69 1013.2
20181120163003 44 225 0.0 2.0 0.00 0.00 0.00 66 1013.2
20181120161503 44 245 0.0 1.0 0.00 0.00 0.00 65 1013.2
20181120161004 45 252 0.0 1.0 0.00 0.00 0.00 63 1013.2
20181120160004 45 250 0.0 2.0 0.00 0.00 0.00 62 1013.2
20181120155503 46 270 1.0 2.0 0.00 0.00 0.00 61 1013.2
20181120155003 46 0 0.0 0.0 0.00 0.00 0.00 61 1013.2
20181120153504 47 270 0.0 1.0 0.00 0.00 0.00 59 1013.2
20181120152503 47 225 0.0 2.0 0.00 0.00 0.00 58 1013.2
20181120151503 47 205 0.0 2.0 0.00 0.00 0.00 57 1013.2
20181120150503 47 147 0.0 2.0 0.00 0.00 0.00 56 1013.2
20181120145503 48 150 0.0 2.0 0.00 0.00 0.00 56 1013.2
20181120145003 48 270 0.0 2.0 0.00 0.00 0.00 55 1013.2
20181120144503 48 266 0.0 2.0 0.00 0.00 0.00 54 1013.2
20181120144004 49 256 0.0 2.0 0.00 0.00 0.00 53 1013.2
20181120143504 49 271 0.0 3.0 0.00 0.00 0.00 53 1013.2
20181120143003 49 273 1.0 3.0 0.00 0.00 0.00 53 1013.2
20181120142504 49 265 2.0 3.0 0.00 0.00 0.00 53 1013.2
20181120142004 49 268 2.0 3.0 0.00 0.00 0.00 53 1013.2
20181120141004 49 260 1.0 3.0 0.00 0.00 0.00 53 1013.2
20181120140004 49 264 2.0 3.0 0.00 0.00 0.00 53 1013.2
20181120135504 49 258 2.0 3.0 0.00 0.00 0.00 52 1013.2
20181120134503 49 260 0.0 3.0 0.00 0.00 0.00 51 1013.2
20181120133503 50 262 1.0 2.0 0.00 0.00 0.00 47 1013.2
20181120133003 50 261 0.0 3.0 0.00 0.00 0.00 47 1013.2
20181120131504 51 242 1.0 3.0 0.00 0.00 0.00 45 1013.2
20181120131004 51 237 2.0 3.0 0.00 0.00 0.00 45 1013.2
20181120130004 51 214 1.0 4.0 0.00 0.00 0.00 45 1013.2
20181120125004 51 214 1.0 4.0 0.00 0.00 0.00 45 1013.2
20181120123004 51 231 1.0 2.0 0.00 0.00 0.00 44 1013.2
20181120121004 52 223 2.0 3.0 0.00 0.00 0.00 43 1013.2
20181120120504 52 235 2.0 3.0 0.00 0.00 0.00 42 1013.2
20181120115004 53 245 1.0 2.0 0.00 0.00 0.00 41 1013.2
20181120114004 53 234 0.0 2.0 0.00 0.00 0.00 40 1013.2
20181120113504 53 239 0.0 2.0 0.00 0.00 0.00 40 1013.2
20181120112504 54 234 1.0 3.0 0.00 0.00 0.00 38 1013.2
20181120112004 54 239 1.0 4.0 0.00 0.00 0.00 38 1013.2
20181120111504 54 250 0.0 4.0 0.00 0.00 0.00 36 1013.2
20181120110504 54 266 2.0 3.0 0.00 0.00 0.00 36 1013.2
20181120110004 54 265 1.0 3.0 0.00 0.00 0.00 36 1013.2
20181120105504 54 261 2.0 3.0 0.00 0.00 0.00 36 1013.2
20181120105004 55 246 1.0 4.0 0.00 0.00 0.00 35 1013.2
20181120104005 55 183 1.0 5.0 0.00 0.00 0.00 34 1013.2
20181120102004 56 250 2.0 6.0 0.00 0.00 0.00 34 1013.2
20181120101004 56 215 2.0 6.0 0.00 0.00 0.00 33 1013.2
20181120100504 56 309 2.0 7.0 0.00 0.00 0.00 33 1013.2
20181120100004 56 326 2.0 8.0 0.00 0.00 0.00 33 1013.2
20181120095004 56 270 3.0 6.0 0.00 0.00 0.00 33 1013.2
20181120093004 57 136 2.0 5.0 0.00 0.00 0.00 33 1013.2
20181120092003 57 262 1.0 4.0 0.00 0.00 0.00 33 1013.2
20181120084505 58 293 1.0 6.0 0.00 0.00 0.00 30 1013.2
20181120083005 59 313 2.0 4.0 0.00 0.00 0.00 30 1013.2
20181120082552 59 272 2.0 7.0 0.00 0.00 0.00 29 1013.2
20181120080503 60 295 2.0 6.0 0.00 0.00 0.00 28 1013.2
20181120072504 62 253 2.0 4.0 0.00 0.00 0.00 24 1013.2
20181120072003 63 245 1.0 4.0 0.00 0.00 0.00 23 1013.2
20181120071003 64 220 2.0 4.0 0.00 0.00 0.00 23 1013.2
20181120070503 64 198 1.0 4.0 0.00 0.00 0.00 22 1013.2
20181120070005 65 174 2.0 5.0 0.00 0.00 0.00 23 1013.2
20181120065504 65 239 2.0 6.0 0.00 0.00 0.00 23 1013.2
20181120064004 68 281 2.0 8.0 0.00 0.00 0.00 20 1013.2
20181120063504 69 165 2.0 5.0 0.00 0.00 0.00 20 1013.2
20181120063004 69 185 2.0 5.0 0.00 0.00 0.00 20 1013.2
20181120061504 71 299 2.0 8.0 0.00 0.00 0.00 17 1013.2
20181120061004 72 300 2.0 7.0 0.00 0.00 0.00 16 1013.2
20181120060503 72 287 2.0 7.0 0.00 0.00 0.00 16 1013.2
20181120060004 72 265 3.0 8.0 0.00 0.00 0.00 15 1013.2
20181120055505 73 229 2.0 11.0 0.00 0.00 0.00 14 1013.2
20181120053504 74 162 2.0 8.0 0.00 0.00 0.00 16 1013.2
20181120052004 76 258 5.0 8.0 0.00 0.00 0.00 15 1013.2
20181120050504 76 270 4.0 7.0 0.00 0.00 0.00 15 1013.2
20181120050004 76 241 3.0 6.0 0.00 0.00 0.00 15 1013.2
20181120045503 76 207 2.0 6.0 0.00 0.00 0.00 14 1013.2
20181120044004 76 47 2.0 11.0 0.00 0.00 0.00 15 1013.2
20181120043005 77 48 2.0 10.0 0.00 0.00 0.00 16 1013.2
20181120042504 77 17 4.0 10.0 0.00 0.00 0.00 17 1013.2
20181120041503 75 324 1.0 7.0 0.00 0.00 0.00 17 1013.2
20181120041004 75 317 2.0 7.0 0.00 0.00 0.00 17 1013.2
20181120040504 75 353 2.0 5.0 0.00 0.00 0.00 19 1013.2
20181120040003 75 319 1.0 8.0 0.00 0.00 0.00 18 1013.2
20181120035004 75 253 2.0 7.0 0.00 0.00 0.00 19 1013.2
20181120034504 74 263 2.0 6.0 0.00 0.00 0.00 19 1013.2
20181120033503 74 201 3.0 8.0 0.00 0.00 0.00 20 1013.2
20181120032504 74 160 3.0 8.0 0.00 0.00 0.00 20 1013.2
20181120032003 74 144 4.0 7.0 0.00 0.00 0.00 19 1013.2
20181120031503 73 245 1.0 6.0 0.00 0.00 0.00 16 1013.2
20181120030503 73 41 2.0 8.0 0.00 0.00 0.00 16 1013.2
20181120030005 74 236 2.0 8.0 0.00 0.00 0.00 19 1013.2
20181120025503 74 58 3.0 7.0 0.00 0.00 0.00 20 1013.2
20181120025004 74 334 2.0 5.0 0.00 0.00 0.00 22 1013.2
20181120024004 73 261 2.0 7.0 0.00 0.00 0.00 17 1013.2
20181120023504 73 339 2.0 6.0 0.00 0.00 0.00 18 1013.2
20181120023004 72 39 2.0 5.0 0.00 0.00 0.00 18 1013.2
20181120021504 70 334 2.0 8.0 0.00 0.00 0.00 19 1013.2
20181120021004 70 42 2.0 8.0 0.00 0.00 0.00 18 1013.2
20181120015504 69 241 2.0 6.0 0.00 0.00 0.00 20 1013.2
20181120011004 66 333 2.0 9.0 0.00 0.00 0.00 21 1013.2
20181120010503 67 62 2.0 8.0 0.00 0.00 0.00 21 1013.2
20181120010004 67 107 2.0 11.0 0.00 0.00 0.00 22 1013.2
20181120005504 66 72 2.0 11.0 0.00 0.00 0.00 22 1013.2
20181120004503 65 28 3.0 8.0 0.00 0.00 0.00 23 1013.2
20181120003504 66 324 4.0 6.0 0.00 0.00 0.00 23 1013.2
20181120003004 66 184 3.0 12.0 0.00 0.00 0.00 24 1013.2
20181120002504 65 229 2.0 12.0 0.00 0.00 0.00 24 1013.2
20181120002004 65 259 2.0 5.0 0.00 0.00 0.00 24 1013.2
20181120001504 65 308 2.0 6.0 0.00 0.00 0.00 24 1013.2
20181120000504 64 291 2.0 4.0 0.00 0.00 0.00 25 1013.2
20181120000004 63 234 1.0 4.0 0.00 0.00 0.00 25 1013.2
20181119233505 62 287 1.0 5.0 0.00 0.00 0.00 27 1013.2
20181119232504 61 250 3.0 4.0 0.00 0.00 0.00 29 1013.2
20181119225505 57 20 2.0 7.0 0.00 0.00 0.00 34 1013.2
20181119225005 56 7 2.0 7.0 0.00 0.00 0.00 35 1013.2
20181119224004 55 345 0.0 4.0 0.00 0.00 0.00 38 1013.2
20181119223504 54 131 1.0 8.0 0.00 0.00 0.00 38 1013.2
20181119222505 53 340 2.0 7.0 0.00 0.00 0.00 39 1013.2
20181119221504 53 80 1.0 5.0 0.00 0.00 0.00 40 1013.2
20181119221004 53 338 3.0 11.0 0.00 0.00 0.00 40 1013.2
20181119220504 53 348 1.0 11.0 0.00 0.00 0.00 39 1013.2
20181119215504 53 5 5.0 12.0 0.00 0.00 0.00 40 1013.2
20181119214505 53 130 4.0 17.0 0.00 0.00 0.00 41 1013.2
20181119214004 52 80 4.0 15.0 0.00 0.01 0.00 42 1013.2
20181119213503 52 79 8.0 15.0 0.00 0.01 0.00 43 1013.2
20181119213005 52 32 4.0 13.0 0.00 0.01 0.00 43 1013.2